Notices

What's New in latest Release from April 7th, 2021:

- Updated Glossary, including Speed of Maximum Gust, and Total Hourly Precipitation

- Updated national and regional climate services offices contacts and prices information

- Addition of station inventory lists for 1981-2010, 1971-2000, and 1961-1990 Normals.

If you haven't already, please take our survey and provide feedback about our website: https://eccc.sondage-survey.ca/f/LanguageSelection.aspx?s=442ca660-fcf1-47c0-95a9-59707d6fd709

Hourly Data Report for June 24, 2015

KELOWNA UBCO
BRITISH COLUMBIA

49°56'26.700" N
119°24'00.760" W
456.00 m
1123996
71644
VKU

Download Data

Hourly Data (June 2015)
Hourly Data Report for June 24, 2015
TIME
LST
Temp Definition
°C
Dew Point Definition
°C
Rel Hum Definition
%
Precip. Amount Definition
mm

Wind Dir Definition
10's deg

Wind Spd Definition
km/h
Visibility Definition
km
Stn Press Definition
kPa
Hmdx Definition


Wind Chill Definition


Weather Definition


00:00 15.4 8.2 62 0.0       96.31     LegendNANA
01:00 13.5 7.9 69 0.0       96.29     LegendNANA
02:00 15.6 8.2 61 0.0       96.34     LegendNANA
03:00 13.5 8.7 73 0.0       96.37     LegendNANA
04:00 12.3 8.4 77 0.0       96.37     LegendNANA
05:00 13.5 9.4 76 0.0       96.39     LegendNANA
06:00 16.3 9.3 63 0.0       96.42     LegendNANA
07:00 18.5 9.9 57 0.0       96.42     LegendNANA
08:00 20.4 8.7 47 0.0       96.40     LegendNANA
09:00 21.2 9.0 46 0.0       96.39     LegendNANA
10:00 23.7 8.3 37 0.0       96.33     LegendNANA
11:00 26.4 8.8 33 0.0       96.29 27   LegendNANA
12:00 27.3 7.9 29 0.0       96.24 28   LegendNANA
13:00 28.5 6.9 26 0.0       96.18 28   LegendNANA
14:00 29.1 5.3 22 0.0       96.14 28   LegendNANA
15:00 30.7 4.9 20 0.0       96.13 30   LegendNANA
16:00 28.3 5.6 24 0.0       96.11 28   LegendNANA
17:00 28.0 5.1 23 0.0       96.11 27   LegendNANA
18:00 27.4 5.4 25 0.0       96.11 27   LegendNANA
19:00 26.2 3.9 24 0.0       96.15 25   LegendNANA
20:00 25.3 2.1 22 0.0       96.24     LegendNANA
21:00 23.6 3.9 28 0.0       96.29     LegendNANA
22:00 21.7 4.0 31 0.0       96.36     LegendNANA
23:00 20.1 6.1 40 0.0       96.40     LegendNANA

Notes on Data Quality.

Legend

  • E = Estimated
  • M = Missing
  • NA = Not Available*
  • [empty] = Indicates an unobserved value
Date modified: